カタログに戻る

STARLINK-31919

運用中通信VLEO
NORAD 59880·PAYLOAD·🇺🇸 United States

打ち上げ May 24, 2024 から Cape Canaveral Space Force Station

Loading…

次のパス (今後24時間)

TLE

最新Source: CelesTrak SupGP

元期: Sep 14, 2026, 22:20 UTC

1 59880C 24098Y   26257.93104167  .00016338  00000+0  59193-3 0  2573
2 59880  43.0000 289.3012 0001437 257.7552 247.9321 15.27561127    18

AllMySatでSTARLINK-31919をリアルタイム追跡

Download on the App Store